Hourly Weather Bolshie Klyuchi

Today, 19 June, Saturday

Time Temperature Precipitation Wind Pressure Humidity
00:00 +12°C° 0 mm 4 mps 755 mmHg 74%
01:00 +12°C° 0 mm 4 mps 755 mmHg 74%
02:00 +12°C° 0 mm 4 mps 755 mmHg 73%
03:00 +12°C° 0 mm 5 mps 755 mmHg 73%
04:00 +14°C° 0 mm 5 mps 754 mmHg 76%
05:00 +15°C° 0 mm 5 mps 754 mmHg 78%
06:00 +16°C° 0 mm 5 mps 754 mmHg 80%
07:00 +19°C° 0 mm 6 mps 754 mmHg 77%
08:00 +20°C° 0 mm 6 mps 753 mmHg 73%
09:00 +22°C° 0 mm 7 mps 753 mmHg 69%
10:00 +23°C° 0 mm 7 mps 753 mmHg 66%
11:00 +24°C° 0 mm 8 mps 753 mmHg 62%
12:00 +26°C° 0 mm 8 mps 752 mmHg 58%
13:00 +27°C° 0 mm 8 mps 752 mmHg 59%
14:00 +27°C° 0 mm 7 mps 751 mmHg 59%
15:00 +28°C° 0 mm 7 mps 751 mmHg 60%
16:00 +27°C° 0 mm 7 mps 751 mmHg 62%
17:00 +27°C° 0 mm 6 mps 751 mmHg 64%
18:00 +26°C° 0 mm 6 mps 750 mmHg 66%
19:00 +25°C° 0 mm 5 mps 750 mmHg 70%
20:00 +22°C° 0 mm 5 mps 751 mmHg 75%
21:00 +21°C° 0 mm 4 mps 751 mmHg 79%
22:00 +20°C° 0 mm 4 mps 751 mmHg 80%
23:00 +20°C° 0 mm 4 mps 751 mmHg 81%

Tomorrow, 20 June, Sunday

Time Temperature Precipitation Wind Pressure Humidity
00:00 +19°C° 0 mm 4 mps 751 mmHg 82%
01:00 +18°C° 0 mm 4 mps 751 mmHg 83%
02:00 +18°C° 0 mm 3 mps 752 mmHg 85%
03:00 +17°C° 0 mm 3 mps 752 mmHg 86%
04:00 +18°C° 0 mm 3 mps 752 mmHg 84%
05:00 +19°C° 0 mm 2 mps 752 mmHg 81%
06:00 +20°C° 0 mm 2 mps 753 mmHg 78%
07:00 +23°C° 0 mm 2 mps 753 mmHg 75%
08:00 +24°C° 0 mm 2 mps 753 mmHg 71%
09:00 +26°C° 0 mm 2 mps 753 mmHg 67%
10:00 +26°C° 0 mm 2 mps 753 mmHg 65%
11:00 +27°C° 0 mm 2 mps 753 mmHg 62%
12:00 +28°C° 0 mm 2 mps 753 mmHg 60%
13:00 +28°C° 0.2 mm 2 mps 753 mmHg 60%
14:00 +28°C° 0.2 mm 2 mps 753 mmHg 60%
15:00 +28°C° 0.2 mm 2 mps 753 mmHg 60%
16:00 +28°C° 0.1 mm 2 mps 753 mmHg 62%
17:00 +28°C° 0.1 mm 1 mps 753 mmHg 65%
18:00 +28°C° 0.1 mm 1 mps 752 mmHg 68%
19:00 +26°C° 0 mm 2 mps 753 mmHg 73%
20:00 +24°C° 0 mm 3 mps 753 mmHg 78%
21:00 +21°C° 0 mm 3 mps 753 mmHg 83%
22:00 +22°C° 0 mm 3 mps 753 mmHg 81%
23:00 +22°C° 0 mm 3 mps 753 mmHg 80%

Day after tomorrow, 21 June, Monday

Time Temperature Precipitation Wind Pressure Humidity
00:00 +22°C° 0 mm 3 mps 753 mmHg 78%
01:00 +21°C° 0 mm 3 mps 753 mmHg 80%
02:00 +21°C° 0 mm 3 mps 753 mmHg 82%
03:00 +21°C° 0 mm 3 mps 753 mmHg 85%
04:00 +21°C° 0 mm 3 mps 753 mmHg 83%
05:00 +22°C° 0 mm 3 mps 753 mmHg 81%
06:00 +22°C° 0 mm 3 mps 753 mmHg 79%
07:00 +25°C° 0 mm 3 mps 753 mmHg 74%
08:00 +26°C° 0 mm 4 mps 753 mmHg 68%
09:00 +27°C° 0 mm 4 mps 753 mmHg 63%
10:00 +28°C° 0 mm 4 mps 753 mmHg 61%
11:00 +29°C° 0 mm 5 mps 753 mmHg 58%
12:00 +30°C° 0 mm 5 mps 753 mmHg 55%
13:00 +30°C° 0 mm 5 mps 753 mmHg 55%
14:00 +30°C° 0 mm 4 mps 753 mmHg 54%
15:00 +30°C° 0 mm 4 mps 753 mmHg 53%
16:00 +30°C° 0 mm 4 mps 752 mmHg 58%
17:00 +29°C° 0 mm 3 mps 752 mmHg 63%
18:00 +29°C° 0 mm 3 mps 752 mmHg 67%
19:00 +27°C° 0 mm 3 mps 752 mmHg 69%
20:00 +26°C° 0 mm 3 mps 752 mmHg 71%
21:00 +24°C° 0 mm 3 mps 752 mmHg 72%
22:00 +24°C° 0 mm 3 mps 752 mmHg 76%
23:00 +22°C° 0 mm 3 mps 752 mmHg 79%

22 June, Tuesday

Time Temperature Precipitation Wind Pressure Humidity
00:00 +21°C° 0 mm 3 mps 752 mmHg 82%
01:00 +21°C° 0 mm 3 mps 752 mmHg 81%
02:00 +20°C° 0 mm 3 mps 752 mmHg 81%
03:00 +20°C° 0 mm 3 mps 753 mmHg 80%
04:00 +21°C° 0 mm 3 mps 753 mmHg 79%
05:00 +22°C° 0 mm 3 mps 753 mmHg 78%
06:00 +24°C° 0 mm 3 mps 753 mmHg 77%
07:00 +26°C° 0 mm 3 mps 753 mmHg 73%
08:00 +27°C° 0 mm 4 mps 753 mmHg 69%
09:00 +29°C° 0 mm 4 mps 753 mmHg 64%
10:00 +29°C° 0 mm 4 mps 753 mmHg 62%
11:00 +30°C° 0 mm 4 mps 753 mmHg 59%
12:00 +32°C° 0 mm 4 mps 753 mmHg 56%
13:00 +32°C° 0 mm 4 mps 753 mmHg 55%
14:00 +33°C° 0 mm 4 mps 753 mmHg 53%
15:00 +33°C° 0 mm 3 mps 753 mmHg 52%
16:00 +30°C° 0.1 mm 4 mps 752 mmHg 59%
17:00 +28°C° 0.1 mm 4 mps 752 mmHg 65%
18:00 +26°C° 0.1 mm 5 mps 752 mmHg 72%
19:00 +25°C° 0.2 mm 3 mps 752 mmHg 73%
20:00 +24°C° 0.2 mm 2 mps 752 mmHg 74%
21:00 +23°C° 0.2 mm 1 mps 752 mmHg 75%
22:00 +21°C° 0.4 mm 2 mps 752 mmHg 77%
23:00 +21°C° 0.4 mm 2 mps 752 mmHg 80%

23 June, Wednesday

Time Temperature Precipitation Wind Pressure Humidity
00:00 +20°C° 0.4 mm 3 mps 752 mmHg 82%
01:00 +20°C° 0.1 mm 3 mps 752 mmHg 84%
02:00 +20°C° 0.1 mm 3 mps 752 mmHg 86%
03:00 +19°C° 0.1 mm 3 mps 752 mmHg 87%
04:00 +20°C° 0 mm 2 mps 752 mmHg 85%
05:00 +21°C° 0 mm 2 mps 752 mmHg 83%
06:00 +24°C° 0 mm 2 mps 752 mmHg 81%
07:00 +25°C° 0 mm 2 mps 752 mmHg 76%
08:00 +26°C° 0 mm 3 mps 752 mmHg 70%
09:00 +27°C° 0 mm 3 mps 752 mmHg 64%
10:00 +28°C° 0 mm 3 mps 752 mmHg 62%
11:00 +29°C° 0 mm 3 mps 752 mmHg 59%
12:00 +30°C° 0 mm 4 mps 752 mmHg 56%
13:00 +31°C° 0 mm 3 mps 752 mmHg 55%
14:00 +31°C° 0 mm 3 mps 752 mmHg 53%
15:00 +31°C° 0 mm 2 mps 752 mmHg 51%
16:00 +31°C° 0.1 mm 2 mps 752 mmHg 56%
17:00 +30°C° 0.1 mm 2 mps 751 mmHg 60%
18:00 +30°C° 0.1 mm 2 mps 751 mmHg 65%
19:00 +27°C° 1.6 mm 4 mps 751 mmHg 73%
20:00 +23°C° 1.6 mm 6 mps 752 mmHg 81%
21:00 +20°C° 1.6 mm 7 mps 752 mmHg 89%
22:00 +20°C° 0.4 mm 5 mps 752 mmHg 88%
23:00 +20°C° 0.4 mm 3 mps 752 mmHg 88%

24 June, Thursday

Time Temperature Precipitation Wind Pressure Humidity
00:00 +20°C° 0.4 mm 1 mps 752 mmHg 87%
01:00 +20°C° 0 mm 1 mps 752 mmHg 88%
02:00 +20°C° 0 mm 1 mps 752 mmHg 88%
03:00 +17°C° 0 mm 0 mps 752 mmHg 88%
04:00 +20°C° 0 mm 1 mps 753 mmHg 86%
05:00 +21°C° 0 mm 1 mps 753 mmHg 84%
06:00 +22°C° 0 mm 1 mps 753 mmHg 82%
07:00 +24°C° 0 mm 1 mps 753 mmHg 78%
08:00 +25°C° 0 mm 1 mps 753 mmHg 74%
09:00 +26°C° 0 mm 1 mps 753 mmHg 69%
10:00 +27°C° 0 mm 1 mps 753 mmHg 66%
11:00 +29°C° 0 mm 1 mps 753 mmHg 62%
12:00 +30°C° 0 mm 1 mps 753 mmHg 59%
13:00 +30°C° 0 mm 1 mps 752 mmHg 57%
14:00 +30°C° 0 mm 1 mps 752 mmHg 56%
15:00 +31°C° 0 mm 1 mps 752 mmHg 55%
16:00 +28°C° 0 mm 0 mps 752 mmHg 58%
17:00 +28°C° 0 mm 0 mps 751 mmHg 61%
18:00 +28°C° 0 mm 0 mps 751 mmHg 64%
19:00 +28°C° 0 mm 1 mps 751 mmHg 68%
20:00 +26°C° 0 mm 1 mps 751 mmHg 73%
21:00 +25°C° 0 mm 1 mps 751 mmHg 78%
22:00 +24°C° 0.1 mm 2 mps 751 mmHg 81%
23:00 +23°C° 0.1 mm 2 mps 751 mmHg 85%
Show more